Location: Haulchin
(50.3172°N, 3.4360°E)
Time: 05:36:08
(UTC+00:00)

CRYOSAT 2 - Pass Details

Date: 23 May 2024
Orbit: 719 x 720 km, 92.0° (Epoch: 19 June)

Event Time Altitude Azimuth Distance (km) Brightness Sun altitude
Rises 01:58:49 0° 5° (N) 3,144 8.9 -13.0°
Reaches altitude 10° 02:01:07 10° 6° (N) 2,219 8.0 -12.8°
Maximum altitude 02:06:02 82° 94° (E) 733 4.4 -12.3°
Enters shadow 02:10:37 12° 183° (S) 2,084 6.2 -11.9°
